TimeCDT,TemperatureF,Dew PointF,Humidity,Sea Level PressureIn,VisibilityMPH,Wind Direction,Wind SpeedMPH,Gust SpeedMPH,PrecipitationIn,Events,Conditions,WindDirDegrees,DateUTC
12:53 AM,75.0,72.0,90,30.03,9.0,Calm,Calm,-,N/A,,Clear,0,2013-07-21 05:53:00
1:53 AM,75.0,73.0,94,30.01,9.0,Calm,Calm,-,N/A,,Partly Cloudy,0,2013-07-21 06:53:00
2:53 AM,75.0,73.0,94,30.01,9.0,Calm,Calm,-,N/A,,Clear,0,2013-07-21 07:53:00
3:53 AM,73.9,72.0,93,30.01,8.0,Calm,Calm,-,N/A,,Clear,0,2013-07-21 08:53:00
4:53 AM,73.9,72.0,93,30.02,3.0,Calm,Calm,-,N/A,,Clear,0,2013-07-21 09:53:00
5:53 AM,73.9,72.0,93,30.03,9.0,Calm,Calm,-,N/A,,Clear,0,2013-07-21 10:53:00
6:53 AM,75.9,73.0,91,30.05,8.0,Calm,Calm,-,N/A,,Clear,0,2013-07-21 11:53:00
7:53 AM,79.0,75.0,88,30.06,10.0,South,4.6,-,0.00,,Clear,180,2013-07-21 12:53:00
8:53 AM,82.9,73.9,74,30.06,10.0,SSW,12.7,-,N/A,,Partly Cloudy,210,2013-07-21 13:53:00
9:53 AM,84.9,72.0,65,30.07,10.0,West,6.9,-,N/A,,Scattered Clouds,260,2013-07-21 14:53:00
10:53 AM,84.9,73.0,67,30.07,10.0,South,8.1,-,N/A,,Clear,180,2013-07-21 15:53:00
11:53 AM,86.0,73.0,65,30.07,10.0,South,5.8,-,0.01,,Partly Cloudy,180,2013-07-21 16:53:00
12:37 PM,87.8,71.6,58,30.07,10.0,SW,13.8,-,N/A,Thunderstorm,Scattered Clouds,220,2013-07-21 17:37:00
12:53 PM,84.9,71.1,63,30.06,10.0,SW,11.5,-,N/A,,Mostly Cloudy,230,2013-07-21 17:53:00
1:53 PM,87.1,73.0,63,30.05,10.0,SW,6.9,-,0.00,Rain,Light Rain,230,2013-07-21 18:53:00
2:53 PM,88.0,72.0,59,30.04,10.0,SW,11.5,19.6,0.00,,Mostly Cloudy,230,2013-07-21 19:53:00
3:53 PM,80.1,69.1,69,30.04,10.0,WNW,15.0,25.3,N/A,,Mostly Cloudy,290,2013-07-21 20:53:00
3:57 PM,78.8,69.8,74,30.04,10.0,WNW,11.5,20.7,N/A,,Mostly Cloudy,290,2013-07-21 20:57:00
4:53 PM,79.0,72.0,79,30.03,10.0,South,10.4,-,0.00,,Scattered Clouds,190,2013-07-21 21:53:00
5:07 PM,80.6,71.6,74,30.04,10.0,SW,9.2,-,N/A,,Mostly Cloudy,220,2013-07-21 22:07:00
5:34 PM,80.6,71.6,74,30.05,10.0,WSW,8.1,-,N/A,,Scattered Clouds,250,2013-07-21 22:34:00
5:53 PM,80.1,70.0,71,30.04,10.0,SW,11.5,-,N/A,,Clear,220,2013-07-21 22:53:00
6:53 PM,79.0,70.0,74,30.04,10.0,WSW,6.9,-,N/A,,Clear,250,2013-07-21 23:53:00
7:53 PM,78.1,71.1,79,30.05,10.0,SW,4.6,-,N/A,,Clear,230,2013-07-22 00:53:00
8:53 PM,77.0,71.1,82,30.05,10.0,SW,4.6,-,N/A,,Clear,220,2013-07-22 01:53:00
9:53 PM,77.0,72.0,84,30.07,10.0,SSW,3.5,-,0.00,Rain,Light Rain,200,2013-07-22 02:53:00
10:53 PM,75.9,72.0,87,30.08,10.0,Calm,Calm,-,0.00,,Partly Cloudy,0,2013-07-22 03:53:00
11:53 PM,75.9,72.0,87,30.08,10.0,South,3.5,-,0.00,,Clear,180,2013-07-22 04:53:00